Temperature
14 15 15 15 15 15 15 15 15 15 15 15 15 15 15 15 15 15 15 15 15 15 15 15 15 15 15 15 15 15 15 15 15 15 15 15 15 15 15 15 15 15 15
14 15 14 15 14 14 14 14 14 14 14 15 15 15 14 14 14 14 15 14 15 15 15 15 15 15 15 15 15 15 15 15 15 15 15 15 15 15 15 15 15 15 15
14 14 14 14 14 14 14 14 14 14 14 14 14 14 14 14 14 14 14 14 14 14 15 15 15 15 15 15 15 15 15 15 14 14 14 14 15 15 15 15 15 15 15
14 14 14 14 14 14 14 14 14 14 14 14 14 14 14 14 14 14 14 14 14 14 14 14 15 15 15 15 15 15 14 14 14 14 14 14 14 15 15 15 15 15 15
13 13 14 14 14 14 14 14 14 14 14 14 14 14 14 14 14 14 14 14 14 14 14 14 14 14 14 14 14 14 14 14 14 14 14 14 14 14 15 15 15 15 15
13 13 13 14 14 14 14 13 13 13 14 14 14 14 14 14 14 14 14 14 14 14 14 14 14 14 14 14 14 14 14 14 14 13 13 14 14 14 14 14 14 14 14
13 13 13 13 13 13 13 13 13 13 13 13 13 13 13 13 13 14 14 14 14 14 14 14 14 14 14 14 14 14 14 13 13 13 13 14 14 14 14 14 14 14 14
13 12 12 13 13 13 13 13 13 13 13 13 13 13 13 13 13 13 13 13 13 14 14 14 14 14 14 14 14 14 13 13 13 13 13 13 13 14 14 14 14 14 14
12 12 12 12 12 12 13 13 13 13 13 13 13 13 13 13 13 13 13 13 13 13 13 13 13 13 13 13 13 13 13 13 13 13 13 13 13 13 13 14 14 13 13
12 12 12 12 12 12 12 12 12 12 12 12 12 12 12 12 12 13 13 13 13 13 13 13 13 13 13 13 13 13 13 13 13 13 13 13 13 13 13 13 13 13 13
11 11 11 11 11 11 12 12 12 12 12 12 12 12 12 12 12 12 12 12 12 13 13 13 13 13 13 13 13 13 13 13 13 13 13 13 13 13 13 13 13 13 13
11 11 11 11 11 11 11 11 11 11 11 11 11 11 11 11 11 11 12 12 12 12 12 12 12 12 12 12 12 12 12 12 12 12 12 12 12 12 13 13 13 13 13
10 10 10 10 10 10 11 11 11 11 11 11 11 11 11 11 11 11 11 11 12 12 12 12 12 12 12 12 12 12 12 12 12 12 12 12 12 12 12 12 12 12 12
9 10 10 10 10 10 10 10 10 10 10 10 10 10 10 10 10 10 11 11 11 11 11 11 11 11 11 11 11 12 12 12 12 12 12 12 12 12 12 12 12 12 12
9 9 9 9 10 10 10 9 9 9 9 9 10 10 10 10 10 10 10 10 10 10 11 11 11 11 11 11 11 11 11 11 11 11 12 12 12 12 12 12 12 12 12
8 8 9 9 9 9 9 9 9 9 9 9 9 9 9 9 9 9 10 10 10 10 10 10 10 10 11 11 11 11 11 11 11 11 11 11 11 11 11 11 11 11 11
8 8 8 8 8 8 8 8 8 8 8 8 8 8 9 9 9 9 9 9 9 9 10 10 10 10 10 10 10 10 10 10 11 11 11 11 11 11 11 11 11 11 11
7 7 8 7 7 8 8 8 8 8 8 8 8 8 8 8 8 8 8 9 9 9 9 9 9 9 9 10 10 10 10 10 10 10 10 10 10 10 10 10 11 11 11
7 7 7 7 7 7 7 7 7 7 7 7 7 7 7 7 8 8 8 8 8 8 9 9 9 9 9 9 9 9 9 9 9 9 10 10 10 10 10 10 10 10 10
6 6 6 6 6 6 6 7 7 7 7 7 7 7 7 7 7 7 7 7 8 8 8 8 8 8 8 8 9 9 9 9 9 9 9 9 9 9 10 9 9 10 10
5 5 5 6 6 6 6 6 6 6 6 6 6 6 6 6 6 6 6 7 7 7 7 7 8 8 8 8 8 8 8 8 8 8 8 9 9 9 9 9 9 9 9
5 5 5 5 5 5 5 5 5 5 5 5 5 5 6 6 6 6 6 6 6 6 7 7 7 7 7 7 7 7 7 7 8 8 8 8 8 8 8 9 9 9 9
4 4 4 4 4 4 5 5 5 5 5 5 5 5 5 5 5 5 5 5 6 6 6 6 6 6 6 6 6 6 6 7 7 7 7 8 8 8 8 8 8 8 8
3 3 3 4 4 4 4 4 4 4 4 4 4 4 4 4 4 5 5 5 5 5 5 5 5 6 6 6 6 6 6 6 6 6 7 7 7 8 8 8 8 8 8
3 3 3 3 3 3 3 3 3 3 3 3 3 3 3 4 4 4 4 4 4 4 5 5 5 5 5 5 5 6 6 6 6 6 6 6 7 7 7 7 7 7 8
2 2 2 2 2 2 2 2 2 2 2 2 2 2 3 3 3 3 3 3 4 4 4 4 4 5 5 5 5 5 5 5 6 6 6 6 6 7 7 7 7 7 7
Wind_Speed
6 9 8 7 8 8 8 8 9 9 9 8 8 8 8 8 9 9 9 9 9 10 11 11 11 11 12 12 12 13 13 13 13 14 15 15 14 14 14 13 14 14 16
6 10 9 8 8 8 8 8 8 8 8 8 8 8 8 9 9 9 9 9 9 10 10 10 10 10 11 11 11 11 11 11 11 12 13 14 14 14 14 14 14 13 15
7 10 9 8 8 8 8 8 8 8 8 8 8 8 8 8 8 9 9 9 9 9 9 9 9 9 10 10 10 9 8 8 7 7 8 11 13 13 13 14 14 14 14
7 10 9 9 8 8 8 8 8 7 7 7 8 7 7 7 8 8 8 9 9 8 8 8 8 8 8 8 8 8 7 5 5 5 7 10 12 12 12 13 13 13 14
8 10 10 9 8 8 7 7 7 7 7 7 7 7 7 7 8 8 8 8 8 8 8 7 7 7 7 7 7 6 5 5 5 5 8 12 12 11 11 12 12 13 13
7 10 10 9 8 8 7 7 6 6 6 7 6 6 7 7 7 8 8 8 8 8 8 7 7 7 7 6 5 4 4 5 5 5 9 12 12 11 11 11 12 12 12
7 10 9 8 8 8 8 7 6 6 6 7 7 6 6 6 6 7 7 7 7 7 7 7 7 7 6 5 5 4 5 5 4 5 9 12 11 10 10 11 11 11 12
7 9 9 8 8 8 8 8 7 7 7 6 6 6 6 5 5 6 6 6 6 6 6 6 7 7 6 5 4 4 4 4 4 5 9 10 11 10 10 10 10 11 11
9 9 9 7 7 7 7 7 7 7 6 6 6 6 5 4 4 4 5 5 5 6 6 6 6 6 6 5 3 3 4 4 4 5 7 9 9 9 9 9 10 10 11
8 8 7 6 6 6 5 6 6 7 6 6 6 6 5 4 3 4 4 5 5 5 6 6 6 5 4 3 2 2 3 3 3 5 6 8 9 9 9 9 9 10 10
6 6 6 6 6 5 4 5 5 5 6 6 6 5 4 3 3 3 5 5 5 5 5 5 4 3 3 2 1 2 2 2 4 5 6 8 9 9 9 8 9 10 10
4 4 5 6 6 6 4 4 4 4 4 5 5 5 3 3 4 5 5 4 4 4 4 3 2 1 1 1 0 1 1 2 3 5 7 8 8 9 9 9 9 9 9
3 4 4 5 6 6 5 4 4 4 4 4 5 4 4 4 4 4 4 3 3 2 2 1 0 1 1 1 2 1 3 4 4 5 7 8 7 8 8 8 8 9 8
4 4 3 5 5 5 5 4 4 4 4 4 4 4 4 4 4 4 3 2 1 1 2 1 1 2 2 1 2 3 4 4 4 6 6 7 7 7 7 7 8 8 8
5 4 3 4 5 5 5 5 5 4 4 4 4 4 5 4 3 3 2 2 2 2 2 2 2 2 3 3 3 4 3 3 4 5 6 8 7 6 6 7 7 7 7
6 5 4 4 5 5 5 4 4 5 5 4 4 4 4 4 3 3 3 3 3 3 2 2 2 2 2 3 3 3 3 3 4 6 6 6 7 6 6 6 6 7 7
6 6 5 4 6 5 5 4 5 5 4 4 4 3 4 4 4 3 3 2 3 2 2 2 3 3 2 2 2 3 3 3 3 4 5 5 6 6 6 6 6 6 6
6 6 6 6 5 4 5 5 5 5 4 4 4 4 3 4 4 3 3 3 3 3 2 2 1 1 1 1 1 2 2 3 3 3 5 5 5 6 6 7 7 6 6
6 6 6 6 6 5 4 5 5 5 5 4 4 4 4 3 3 3 3 3 3 3 2 2 1 1 1 1 1 1 2 2 2 3 4 4 5 6 6 7 7 7 6
5 6 6 6 6 5 4 4 4 3 4 5 5 6 5 5 4 3 2 2 2 2 1 1 1 1 0 0 0 1 1 1 1 2 2 3 4 5 5 5 6 6 6
6 6 6 6 6 5 3 3 2 2 2 3 4 6 5 5 5 4 2 2 2 1 1 0 0 1 1 0 1 1 1 0 1 0 1 2 3 3 4 5 5 5 5
6 6 5 5 5 4 3 3 2 2 2 2 4 5 5 5 5 4 3 2 2 1 1 1 0 0 1 1 1 1 1 1 1 1 1 1 2 2 2 3 4 4 4
6 6 5 5 4 4 4 3 3 3 3 2 3 3 5 6 5 5 4 3 2 1 2 2 2 2 2 2 1 2 2 2 0 1 2 2 2 1 1 2 2 4 5
5 5 5 5 4 4 4 3 3 3 3 3 3 3 5 5 5 5 5 4 3 2 2 3 3 2 3 3 2 2 1 1 2 1 1 1 1 1 1 1 1 2 4
5 5 4 5 5 5 4 3 3 3 3 3 3 4 3 4 5 5 5 4 4 3 3 3 3 4 3 3 2 2 1 1 1 2 2 2 1 1 1 1 2 2 3
5 5 5 5 5 5 5 4 3 4 4 4 4 4 3 3 3 4 5 5 4 3 3 3 4 4 4 4 3 3 2 2 2 2 2 2 2 2 2 1 2 2 3
Wind_Direction
95 100 105 97 86 79 75 73 69 68 68 68 66 66 65 65 65 64 64 66 69 71 71 75 76 77 75 73 74 74 74 76 78 79 78 75 76 79 78 79 87 84 86
100 106 104 98 90 84 78 75 72 69 66 64 66 67 65 66 67 65 65 66 69 73 72 72 74 76 76 75 76 76 77 79 81 83 82 77 75 76 76 76 82 89 89
88 106 101 92 90 86 81 76 73 70 66 63 63 66 67 64 63 63 62 63 65 71 72 71 74 75 77 78 78 78 79 73 71 79 89 91 83 78 80 81 85 90 90
82 99 99 94 91 89 83 77 73 71 69 66 65 64 66 67 64 64 62 62 62 67 70 72 77 77 79 80 80 78 71 53 44 62 84 92 88 84 84 85 89 92 91
73 89 90 91 87 87 83 78 75 72 70 69 69 64 66 67 67 66 62 62 63 63 66 70 77 81 83 80 79 75 59 38 38 57 85 90 89 90 89 88 90 92 93
67 85 91 88 83 81 78 75 74 70 68 70 71 69 69 68 67 69 66 63 62 61 63 68 75 82 84 81 78 70 55 32 30 55 81 91 91 94 92 91 93 96 96
58 74 87 85 83 76 71 67 65 66 67 66 65 66 68 67 68 70 71 67 63 62 63 66 73 77 84 84 76 59 39 22 40 61 78 88 95 98 98 95 97 102 101
55 63 76 69 75 73 68 66 61 60 61 59 58 58 61 67 65 69 72 69 65 64 66 70 75 76 77 77 67 47 23 21 42 71 86 92 101 102 102 101 99 102 103
55 56 66 64 62 64 64 65 62 58 57 54 51 49 50 59 64 62 69 69 69 67 69 74 79 81 74 68 56 35 11 12 26 56 86 94 105 108 106 106 103 103 103
55 49 51 62 59 56 60 59 59 55 51 50 50 48 47 54 63 64 65 68 75 74 76 76 79 81 75 67 49 15 350 2 47 63 80 95 108 111 108 109 111 111 108
45 43 36 43 45 46 58 59 58 58 51 50 48 46 46 35 50 72 75 78 76 75 79 80 84 88 91 82 46 1 342 3 77 77 83 102 110 111 110 110 112 116 113
33 31 27 28 33 37 44 58 52 54 55 52 49 41 25 27 40 56 74 82 82 79 84 85 85 88 106 151 206 307 340 39 86 89 97 107 111 112 111 109 111 113 118
36 32 23 19 25 31 24 40 38 45 48 44 46 28 18 36 49 52 65 74 77 88 77 94 158 304 4 67 56 50 35 48 71 88 103 106 111 118 117 114 114 114 120
34 33 23 22 21 20 20 19 31 35 37 30 31 13 19 31 37 37 39 40 44 57 59 11 331 3 20 63 77 67 51 42 76 92 103 110 111 116 124 123 121 119 119
30 27 20 26 20 14 16 13 20 21 26 29 31 10 19 27 21 29 18 21 4 25 37 356 1 11 18 30 38 60 64 54 73 87 101 112 117 120 125 130 129 128 128
21 22 22 30 17 17 19 13 10 14 24 29 29 10 17 23 16 16 10 13 11 21 357 354 30 24 20 34 30 41 51 52 71 91 103 109 118 120 126 129 129 130 131
19 20 20 28 23 19 15 10 11 9 21 20 13 5 17 16 15 11 2 357 13 13 351 5 36 41 32 37 13 26 46 56 71 98 114 118 117 121 128 130 129 128 131
24 20 19 23 21 17 12 6 9 6 13 17 11 3 5 8 3 6 5 358 360 7 12 10 39 51 32 33 18 6 33 52 66 92 108 117 116 118 129 131 131 130 131
28 22 20 22 18 7 6 6 7 9 3 4 10 4 355 349 344 355 0 353 346 5 5 359 26 34 54 26 8 16 26 37 34 72 90 107 119 121 125 134 137 136 137
34 31 24 17 17 12 12 9 4 9 4 360 7 1 356 348 336 351 352 335 336 350 356 10 35 13 40 103 43 39 17 8 44 57 78 95 115 127 127 136 141 146 150
31 30 21 16 10 9 8 2 359 350 339 349 355 355 351 346 341 344 334 327 327 293 266 283 88 47 320 81 78 43 5 359 115 64 74 90 93 113 129 130 137 146 152
22 19 14 12 6 1 356 346 337 326 317 343 349 344 341 335 333 332 322 307 301 271 253 228 160 244 261 209 151 134 173 300 293 222 150 139 137 104 105 130 139 138 136
16 8 4 0 358 356 357 353 352 350 351 352 336 330 334 331 331 324 314 311 304 279 235 229 212 226 231 250 212 181 178 198 225 247 224 191 163 142 122 103 137 151 152
7 2 359 355 354 355 360 356 348 330 315 309 307 304 318 327 330 324 321 308 294 279 256 243 242 233 217 229 241 241 233 170 168 193 262 234 179 172 174 151 138 153 159
6 0 357 354 353 354 354 345 330 315 307 310 304 295 300 319 327 326 320 312 298 280 263 260 249 231 225 226 225 232 251 295 225 185 224 234 255 235 195 179 177 172 172
3 358 355 352 349 350 348 338 326 314 311 312 308 303 296 296 306 313 313 308 301 293 275 266 257 242 233 228 226 217 202 199 213 204 219 231 238 236 215 189 178 184 182
Height
1532 1532 1532 1533 1533 1534 1535 1535 1536 1536 1537 1537 1537 1538 1538 1538 1539 1539 1540 1540 1540 1541 1541 1541 1542 1542 1543 1543 1544 1544 1545 1545 1545 1546 1546 1547 1547 1547 1547 1548 1548 1549 1549
1532 1532 1533 1533 1534 1534 1535 1536 1536 1537 1537 1538 1538 1539 1539 1539 1540 1540 1540 1541 1541 1542 1542 1542 1543 1543 1544 1544 1545 1545 1546 1546 1547 1547 1548 1548 1549 1549 1549 1550 1550 1551 1551
1532 1532 1533 1533 1534 1535 1535 1536 1537 1537 1538 1538 1539 1539 1539 1540 1540 1541 1541 1541 1542 1542 1543 1543 1544 1544 1545 1545 1546 1547 1547 1548 1549 1549 1549 1550 1550 1550 1551 1551 1552 1552 1553
1533 1533 1533 1534 1534 1535 1536 1536 1537 1538 1538 1539 1539 1539 1540 1540 1541 1541 1541 1542 1542 1543 1543 1544 1544 1545 1546 1546 1547 1548 1548 1549 1550 1550 1551 1551 1551 1552 1552 1553 1553 1554 1555
1533 1533 1533 1534 1535 1535 1536 1536 1537 1538 1538 1539 1539 1540 1540 1541 1541 1541 1542 1542 1543 1543 1544 1544 1545 1546 1546 1547 1548 1549 1549 1550 1551 1552 1552 1552 1553 1553 1553 1554 1555 1555 1556
1533 1533 1533 1534 1535 1535 1536 1537 1537 1538 1538 1539 1539 1540 1540 1541 1541 1542 1542 1542 1543 1543 1544 1544 1545 1546 1547 1548 1548 1549 1550 1551 1552 1552 1553 1553 1554 1554 1554 1555 1556 1556 1557
1534 1533 1533 1534 1535 1535 1536 1536 1537 1538 1538 1539 1539 1540 1540 1541 1541 1541 1542 1542 1543 1543 1544 1544 1545 1546 1547 1548 1549 1550 1551 1551 1552 1553 1554 1554 1554 1555 1555 1556 1557 1557 1558
1533 1533 1533 1534 1535 1535 1536 1536 1537 1537 1538 1538 1539 1539 1540 1540 1540 1541 1541 1542 1543 1543 1544 1544 1545 1546 1547 1548 1549 1550 1551 1552 1553 1553 1554 1554 1555 1555 1556 1557 1557 1558 1559
1533 1533 1533 1534 1534 1535 1535 1536 1536 1537 1537 1538 1538 1539 1539 1540 1540 1540 1541 1541 1542 1543 1543 1544 1545 1546 1547 1548 1549 1549 1551 1552 1553 1553 1554 1555 1555 1556 1556 1557 1558 1559 1559
1533 1533 1533 1533 1534 1534 1534 1535 1536 1536 1537 1537 1538 1538 1538 1539 1539 1540 1540 1541 1541 1542 1543 1543 1544 1545 1546 1547 1548 1549 1550 1551 1552 1553 1554 1555 1555 1556 1556 1557 1558 1559 1560
1533 1533 1533 1533 1533 1533 1534 1534 1535 1535 1536 1536 1537 1537 1537 1538 1538 1539 1539 1540 1540 1541 1542 1543 1544 1544 1546 1547 1548 1549 1550 1551 1552 1552 1553 1554 1555 1556 1556 1557 1558 1559 1560
1532 1532 1532 1532 1533 1533 1533 1533 1534 1534 1534 1535 1535 1536 1536 1537 1537 1537 1538 1539 1539 1540 1541 1542 1543 1544 1545 1546 1547 1548 1549 1550 1551 1552 1553 1553 1554 1555 1556 1557 1557 1558 1559
1532 1532 1532 1532 1532 1532 1532 1533 1533 1533 1533 1534 1534 1535 1535 1535 1536 1536 1537 1537 1538 1539 1539 1540 1541 1542 1543 1545 1546 1547 1547 1548 1550 1551 1551 1552 1553 1554 1555 1556 1557 1558 1559
1531 1531 1531 1531 1531 1532 1532 1532 1532 1532 1532 1533 1533 1533 1533 1534 1534 1535 1535 1536 1536 1537 1538 1539 1540 1541 1542 1543 1544 1545 1546 1547 1548 1549 1550 1551 1552 1553 1554 1555 1556 1557 1558
1530 1530 1530 1530 1530 1531 1531 1531 1531 1531 1531 1531 1532 1532 1532 1532 1532 1533 1534 1535 1535 1535 1536 1537 1538 1539 1541 1541 1542 1543 1545 1546 1547 1547 1548 1549 1550 1551 1552 1553 1554 1555 1557
1529 1529 1529 1529 1529 1529 1529 1529 1530 1530 1530 1530 1530 1530 1531 1531 1531 1532 1532 1533 1534 1534 1535 1535 1536 1537 1538 1539 1540 1541 1543 1544 1545 1545 1546 1547 1549 1550 1551 1552 1553 1554 1555
1528 1528 1528 1528 1528 1528 1528 1528 1528 1528 1529 1528 1529 1529 1529 1529 1529 1530 1530 1531 1532 1532 1533 1533 1534 1535 1536 1537 1538 1539 1540 1542 1543 1543 1544 1545 1546 1548 1549 1550 1551 1552 1553
1527 1527 1526 1526 1526 1526 1526 1526 1526 1526 1526 1527 1527 1527 1527 1527 1527 1528 1528 1529 1529 1530 1530 1531 1532 1533 1533 1534 1535 1536 1538 1539 1540 1541 1542 1543 1544 1546 1547 1548 1549 1550 1551
1526 1526 1525 1525 1525 1525 1525 1525 1525 1525 1525 1525 1524 1524 1524 1525 1525 1526 1526 1526 1527 1527 1528 1529 1529 1530 1531 1532 1533 1534 1535 1536 1538 1539 1540 1541 1542 1544 1545 1546 1547 1548 1549
1526 1525 1524 1524 1523 1523 1523 1523 1523 1523 1522 1522 1522 1522 1522 1522 1522 1523 1523 1524 1524 1525 1525 1526 1527 1528 1529 1530 1530 1531 1533 1534 1535 1536 1538 1539 1540 1541 1542 1544 1545 1546 1547
1526 1524 1524 1523 1522 1522 1521 1520 1520 1519 1520 1520 1519 1519 1520 1520 1520 1520 1520 1521 1521 1521 1522 1523 1524 1525 1526 1527 1528 1528 1530 1531 1532 1533 1535 1536 1537 1539 1540 1541 1543 1544 1545
1525 1524 1523 1522 1521 1521 1520 1519 1518 1518 1517 1517 1517 1517 1517 1517 1517 1517 1517 1517 1518 1518 1519 1520 1521 1521 1523 1525 1526 1526 1527 1529 1529 1530 1532 1533 1535 1536 1537 1539 1540 1541 1542
1525 1523 1522 1521 1520 1519 1518 1517 1517 1516 1515 1514 1514 1514 1514 1514 1514 1514 1514 1514 1514 1515 1515 1516 1518 1518 1520 1522 1523 1525 1525 1525 1526 1527 1529 1530 1531 1533 1534 1536 1537 1538 1540
1524 1523 1521 1520 1519 1518 1517 1515 1514 1513 1512 1511 1511 1510 1510 1510 1510 1511 1511 1511 1511 1512 1512 1513 1514 1515 1517 1518 1520 1521 1523 1523 1525 1525 1526 1527 1528 1529 1531 1532 1534 1535 1536
1524 1522 1520 1519 1518 1516 1515 1513 1512 1511 1510 1509 1508 1507 1507 1506 1507 1507 1507 1507 1508 1508 1509 1509 1510 1512 1513 1514 1515 1517 1519 1520 1521 1522 1522 1523 1524 1526 1527 1529 1530 1532 1533
1522 1521 1519 1517 1516 1514 1513 1511 1510 1508 1507 1505 1504 1503 1502 1502 1502 1503 1503 1503 1504 1504 1505 1505 1506 1507 1509 1510 1511 1513 1514 1515 1516 1518 1518 1519 1520 1522 1523 1525 1527 1528 1529